FENGYUN 1C DEB

Satellite information

Favourite Embed

Satellite Type and Status

DEBRISIN ORBIT

Key statistics

Satellite FENGYUN 1C DEB at a glance.

Uptime

9715

Days in orbit

Revolutions

≈ 14.1

Per day

Orbit

SSO

Sun Synchronous Orbit

Inclination

98.8

Latest

Satellite identification and parameters

Extended collection of information and parameters for FENGYUN 1C DEB.

Object identification

Identified? True

Debris? True

Object name: FENGYUN 1C DEB

International designator: 1999-025DW

Object number (NORAD): 29828

Object ID (CCSDS): 29828

Country: PEOPLES REPUBLIC OF CHINA (PRC)

Current information (Y/N): Y

RCS size: SMALL

Orbital parameters

Period: 102.261 minutes

Inclination: 98.7703 deg

SMA: 7243.791 km

Apoapsis: 910.151 km

Periapsis: 821.162 km

RAAN: 33.0601 deg

Eccentricy: 0.00614243

Argument of periapsis: 153.6568 deg

Mean anomaly: 358.2947 deg

Mean motion: 14.08166019 rev/day

Mean motion (dot): 0.00001691 rev/day2

B* drag term: 0.00099903416 1/REarth

Two-line elements (TLE)

Creation date: Dec. 14, 2025, 3:07 a.m.

Reference frame: TEME

Reference center: EARTH

Epoch: Dec. 13, 2025, 2:44 p.m. UTC

TLE line 0: 0 FENGYUN 1C DEB

TLE line 1: 1 29828U 99025DW 25347.61454221 .00001691 00000-0 99903-3 0 9990

TLE line 2: 2 29828 98.7703 33.0601 0061424 153.6568 358.2947 14.08166019967498

Live tracking on map

Real-time ground track for satellite FENGYUN 1C DEB.

In-orbit conjunctions

A list of the most updated potential collisions computed for object FENGYUN 1C DEB.

Target Orbit TCA Probability of collision Miss distance Type
METEOR 1-11 LEO 2025-10-18 17:08:06 0.0001727643 74.0 (m) PAYLOAD
METEOR 1-24 LEO 2024-09-16 00:18:58 0.000187521 110.0 (m) PAYLOAD

Associated space launch

Chinese polar orbiting meteorological satellite

FENGYUN 1C DEB was lifted into orbit during the mission ‘Long March 4B | Feng Yun 1C’, on board a Long March 4B space rocket.

The launch took place on May 10, 1999, 1:33 a.m. from Launch Complex 7.

For more information about the launch, click the button.

Launch to space Long March 4B | Feng Yun 1C
Long March 4B | Feng Yun 1C

Agency: N/A

Status: Launch Successful

Launch date: May 10, 1999, 1:33 a.m. UTC

Rocket: Long March 4B

Launch pad: Launch Complex 7

Location: Taiyuan Satellite Launch Center, People's Republic of China

...

Latest news about this satellite

There are no fresh news available about this satellite. Check back as we update our databases every day.


Newsletter sign-up

Weekly statistics, charts and insights to help you stay on top of the space industry.